Time,TemperatureF,DewpointF,PressureIn,WindDirection,WindDirectionDegrees,WindSpeedMPH,WindSpeedGustMPH,Humidity,HourlyPrecipIn,Conditions,Clouds,dailyrainin,SoftwareType,DateUTC
2013-12-03 00:01:00,28.8,27.0,29.97,ESE,103,0.0,0.0,93,0.00,,,0.00,Wunderground v.1.15,2013-12-03 05:01:00,
2013-12-03 00:04:00,28.9,27.4,29.97,ESE,103,0.0,0.0,94,0.00,,,0.00,Wunderground v.1.15,2013-12-03 05:04:00,
2013-12-03 00:05:00,28.9,27.4,29.97,ESE,103,0.0,0.0,94,0.00,,,0.00,Wunderground v.1.15,2013-12-03 05:05:00,
2013-12-03 00:08:00,29.0,27.5,29.98,ESE,103,0.0,0.0,94,0.00,,,0.00,Wunderground v.1.15,2013-12-03 05:08:00,
2013-12-03 00:14:00,29.0,27.5,29.98,ESE,103,0.0,0.0,94,0.00,,,0.00,Wunderground v.1.15,2013-12-03 05:14:00,
2013-12-03 00:17:00,28.9,27.1,29.98,ESE,103,0.0,0.0,93,0.00,,,0.00,Wunderground v.1.15,2013-12-03 05:17:00,
2013-12-03 00:19:00,28.9,27.1,29.98,ESE,103,0.0,0.0,93,0.00,,,0.00,Wunderground v.1.15,2013-12-03 05:19:00,
2013-12-03 00:24:00,28.9,27.4,29.98,ESE,103,0.0,0.0,94,0.00,,,0.00,Wunderground v.1.15,2013-12-03 05:24:00,
2013-12-03 00:30:00,28.8,27.3,29.98,ESE,103,0.0,0.0,94,0.00,,,0.00,Wunderground v.1.15,2013-12-03 05:30:00,
2013-12-03 00:36:00,28.8,27.3,29.98,ESE,103,0.0,0.0,94,0.00,,,0.00,Wunderground v.1.15,2013-12-03 05:36:00,
2013-12-03 00:42:00,28.6,27.1,29.98,ESE,103,0.0,0.0,94,0.00,,,0.00,Wunderground v.1.15,2013-12-03 05:42:00,
2013-12-03 00:48:00,28.5,27.0,29.98,ESE,103,0.0,0.0,94,0.00,,,0.00,Wunderground v.1.15,2013-12-03 05:48:00,
2013-12-03 00:54:00,28.5,27.0,29.98,ESE,103,0.0,0.0,94,0.00,,,0.00,Wunderground v.1.15,2013-12-03 05:54:00,
2013-12-03 01:00:00,28.4,26.9,29.98,ESE,103,0.0,0.0,94,0.00,,,0.00,Wunderground v.1.15,2013-12-03 06:00:00,
2013-12-03 01:06:00,28.3,26.8,29.98,ESE,103,0.0,0.0,94,0.00,,,0.00,Wunderground v.1.15,2013-12-03 06:06:00,
2013-12-03 01:12:00,28.3,26.8,29.98,ESE,103,0.0,0.0,94,0.00,,,0.00,Wunderground v.1.15,2013-12-03 06:12:00,
2013-12-03 01:17:00,28.4,26.9,29.98,ESE,103,0.0,0.0,94,0.00,,,0.00,Wunderground v.1.15,2013-12-03 06:17:00,
2013-12-03 01:23:00,28.4,26.9,29.98,ESE,103,0.0,0.0,94,0.00,,,0.00,Wunderground v.1.15,2013-12-03 06:23:00,
2013-12-03 01:29:00,28.5,27.0,29.99,ESE,103,0.0,0.0,94,0.00,,,0.00,Wunderground v.1.15,2013-12-03 06:29:00,
2013-12-03 01:35:00,28.6,27.4,29.98,ESE,103,0.0,0.0,95,0.00,,,0.00,Wunderground v.1.15,2013-12-03 06:35:00,
2013-12-03 01:41:00,28.8,27.5,29.98,ESE,103,0.0,0.0,95,0.00,,,0.00,Wunderground v.1.15,2013-12-03 06:41:00,
2013-12-03 01:47:00,28.9,27.6,29.99,ESE,103,0.0,0.0,95,0.00,,,0.00,Wunderground v.1.15,2013-12-03 06:47:00,
2013-12-03 01:53:00,29.1,27.8,29.98,ESE,103,0.0,0.0,95,0.00,,,0.00,Wunderground v.1.15,2013-12-03 06:53:00,
2013-12-03 01:59:00,29.2,27.9,29.98,ESE,103,0.0,0.0,95,0.00,,,0.00,Wunderground v.1.15,2013-12-03 06:59:00,
2013-12-03 02:05:00,29.1,27.6,29.98,ESE,103,0.0,0.0,94,0.00,,,0.00,Wunderground v.1.15,2013-12-03 07:05:00,
2013-12-03 02:10:00,29.0,27.5,29.98,ESE,103,0.0,0.0,94,0.00,,,0.00,Wunderground v.1.15,2013-12-03 07:10:00,
2013-12-03 02:16:00,29.1,27.8,29.98,ESE,103,0.0,0.0,95,0.00,,,0.00,Wunderground v.1.15,2013-12-03 07:16:00,
2013-12-03 02:22:00,29.1,27.8,29.99,ESE,103,0.0,0.0,95,0.00,,,0.00,Wunderground v.1.15,2013-12-03 07:22:00,
2013-12-03 02:28:00,29.1,27.8,29.99,ESE,103,0.0,0.0,95,0.00,,,0.00,Wunderground v.1.15,2013-12-03 07:28:00,
2013-12-03 02:34:00,29.2,27.9,29.99,ESE,103,0.0,0.0,95,0.00,,,0.00,Wunderground v.1.15,2013-12-03 07:34:00,
2013-12-03 02:40:00,29.3,28.0,29.99,ESE,103,0.0,0.0,95,0.00,,,0.00,Wunderground v.1.15,2013-12-03 07:40:00,
2013-12-03 02:46:00,29.5,28.2,29.99,ESE,103,0.0,0.0,95,0.00,,,0.00,Wunderground v.1.15,2013-12-03 07:46:00,
2013-12-03 02:51:00,29.5,28.2,29.99,ESE,103,0.0,0.0,95,0.00,,,0.00,Wunderground v.1.15,2013-12-03 07:51:00,
2013-12-03 02:57:00,29.6,28.3,29.99,ESE,103,0.0,0.0,95,0.00,,,0.00,Wunderground v.1.15,2013-12-03 07:57:00,
2013-12-03 03:03:00,29.7,28.4,29.99,ESE,103,0.0,0.0,95,0.00,,,0.00,Wunderground v.1.15,2013-12-03 08:03:00,
2013-12-03 03:09:00,29.8,28.5,29.99,ESE,103,0.0,0.0,95,0.00,,,0.00,Wunderground v.1.15,2013-12-03 08:09:00,
2013-12-03 03:15:00,29.9,28.6,29.99,ESE,103,0.0,0.0,95,0.00,,,0.00,Wunderground v.1.15,2013-12-03 08:15:00,
2013-12-03 03:21:00,30.0,28.7,29.99,ESE,103,0.0,0.0,95,0.00,,,0.00,Wunderground v.1.15,2013-12-03 08:21:00,
2013-12-03 03:27:00,30.1,28.8,29.99,ESE,103,0.0,2.0,95,0.00,,,0.00,Wunderground v.1.15,2013-12-03 08:27:00,
2013-12-03 03:33:00,30.2,28.9,29.99,ESE,103,0.0,1.0,95,0.00,,,0.00,Wunderground v.1.15,2013-12-03 08:33:00,
2013-12-03 03:39:00,30.2,28.9,29.98,ESE,103,1.0,4.0,95,0.00,,,0.00,Wunderground v.1.15,2013-12-03 08:39:00,
2013-12-03 03:45:00,30.3,29.0,29.98,ESE,111,2.0,5.0,95,0.00,,,0.00,Wunderground v.1.15,2013-12-03 08:45:00,
2013-12-03 03:51:00,30.5,29.2,29.98,SE,129,1.0,5.0,95,0.00,,,0.00,Wunderground v.1.15,2013-12-03 08:51:00,
2013-12-03 03:57:00,30.5,29.2,29.98,WNW,286,2.0,5.0,95,0.00,,,0.00,Wunderground v.1.15,2013-12-03 08:57:00,
2013-12-03 04:03:00,30.6,29.3,29.98,WNW,286,1.0,2.0,95,0.00,,,0.00,Wunderground v.1.15,2013-12-03 09:03:00,
2013-12-03 04:08:00,30.6,29.3,29.98,WNW,286,0.0,2.0,95,0.00,,,0.00,Wunderground v.1.15,2013-12-03 09:08:00,
2013-12-03 04:14:00,30.7,29.4,29.98,WNW,286,0.0,0.0,95,0.00,,,0.00,Wunderground v.1.15,2013-12-03 09:14:00,
2013-12-03 04:20:00,30.9,29.6,29.98,WNW,286,0.0,0.0,95,0.00,,,0.00,Wunderground v.1.15,2013-12-03 09:20:00,
2013-12-03 04:26:00,31.1,29.8,29.98,WNW,286,0.0,0.0,95,0.00,,,0.00,Wunderground v.1.15,2013-12-03 09:26:00,
2013-12-03 04:32:00,31.1,29.8,29.98,WNW,286,0.0,0.0,95,0.00,,,0.00,Wunderground v.1.15,2013-12-03 09:32:00,
2013-12-03 04:38:00,31.2,29.9,29.98,WNW,286,0.0,0.0,95,0.00,,,0.00,Wunderground v.1.15,2013-12-03 09:38:00,
2013-12-03 04:44:00,31.3,30.0,29.98,WNW,286,0.0,0.0,95,0.00,,,0.00,Wunderground v.1.15,2013-12-03 09:44:00,
2013-12-03 04:50:00,31.2,29.9,29.98,WNW,286,1.0,4.0,95,0.00,,,0.00,Wunderground v.1.15,2013-12-03 09:50:00,
2013-12-03 04:56:00,31.1,29.6,29.98,WNW,286,3.0,5.0,94,0.00,,,0.00,Wunderground v.1.15,2013-12-03 09:56:00,
2013-12-03 05:02:00,31.2,29.7,29.98,WNW,286,1.0,3.0,94,0.00,,,0.00,Wunderground v.1.15,2013-12-03 10:02:00,
2013-12-03 05:08:00,31.4,30.1,29.98,WNW,286,0.0,3.0,95,0.00,,,0.00,Wunderground v.1.15,2013-12-03 10:08:00,
2013-12-03 05:14:00,31.6,30.3,29.97,WNW,286,0.0,0.0,95,0.00,,,0.00,Wunderground v.1.15,2013-12-03 10:14:00,
2013-12-03 05:20:00,31.5,30.0,29.97,WNW,286,0.0,0.0,94,0.00,,,0.00,Wunderground v.1.15,2013-12-03 10:20:00,
2013-12-03 05:26:00,31.3,29.8,29.98,WNW,286,0.0,0.0,94,0.00,,,0.00,Wunderground v.1.15,2013-12-03 10:26:00,
2013-12-03 05:31:00,31.2,29.7,29.98,WNW,286,0.0,0.0,94,0.00,,,0.00,Wunderground v.1.15,2013-12-03 10:31:00,
2013-12-03 05:37:00,31.1,29.6,29.98,WNW,286,0.0,0.0,94,0.00,,,0.00,Wunderground v.1.15,2013-12-03 10:37:00,
2013-12-03 05:43:00,31.1,29.6,29.99,WNW,286,0.0,0.0,94,0.00,,,0.00,Wunderground v.1.15,2013-12-03 10:43:00,
2013-12-03 05:49:00,31.1,29.8,29.98,WNW,286,0.0,0.0,95,0.00,,,0.00,Wunderground v.1.15,2013-12-03 10:49:00,
2013-12-03 05:55:00,31.1,29.6,29.98,WNW,286,0.0,0.0,94,0.00,,,0.00,Wunderground v.1.15,2013-12-03 10:55:00,
2013-12-03 06:01:00,31.1,29.6,29.98,WNW,286,0.0,0.0,94,0.00,,,0.00,Wunderground v.1.15,2013-12-03 11:01:00,
2013-12-03 06:07:00,31.1,29.6,29.98,WNW,286,0.0,0.0,94,0.00,,,0.00,Wunderground v.1.15,2013-12-03 11:07:00,
2013-12-03 06:13:00,31.1,29.6,29.99,WNW,286,0.0,0.0,94,0.00,,,0.00,Wunderground v.1.15,2013-12-03 11:13:00,
2013-12-03 06:19:00,31.4,30.1,29.98,WNW,286,0.0,0.0,95,0.00,,,0.00,Wunderground v.1.15,2013-12-03 11:19:00,
2013-12-03 06:25:00,31.8,30.5,29.99,WNW,286,0.0,0.0,95,0.00,,,0.00,Wunderground v.1.15,2013-12-03 11:25:00,
2013-12-03 06:31:00,32.1,30.8,29.98,WNW,286,0.0,0.0,95,0.00,,,0.00,Wunderground v.1.15,2013-12-03 11:31:00,
2013-12-03 06:37:00,32.1,30.6,29.99,WNW,286,0.0,0.0,94,0.00,,,0.00,Wunderground v.1.15,2013-12-03 11:37:00,
2013-12-03 06:43:00,32.1,30.6,29.99,WNW,286,0.0,0.0,94,0.00,,,0.00,Wunderground v.1.15,2013-12-03 11:43:00,
2013-12-03 06:48:00,32.1,30.6,29.99,WNW,286,0.0,0.0,94,0.00,,,0.00,Wunderground v.1.15,2013-12-03 11:48:00,
2013-12-03 06:54:00,32.3,30.8,29.99,WNW,286,0.0,0.0,94,0.00,,,0.00,Wunderground v.1.15,2013-12-03 11:54:00,
2013-12-03 07:00:00,32.1,30.3,29.99,WNW,286,0.0,0.0,93,0.00,,,0.00,Wunderground v.1.15,2013-12-03 12:00:00,
2013-12-03 07:06:00,32.3,30.8,29.99,WNW,286,0.0,0.0,94,0.00,,,0.00,Wunderground v.1.15,2013-12-03 12:06:00,
2013-12-03 07:12:00,32.4,30.6,29.99,WNW,286,0.0,0.0,93,0.00,,,0.00,Wunderground v.1.15,2013-12-03 12:12:00,
2013-12-03 07:18:00,32.0,30.2,29.99,WNW,286,0.0,0.0,93,0.00,,,0.00,Wunderground v.1.15,2013-12-03 12:18:00,
2013-12-03 07:24:00,31.7,29.9,29.99,WNW,286,0.0,0.0,93,0.00,,,0.00,Wunderground v.1.15,2013-12-03 12:24:00,
2013-12-03 07:30:00,31.5,29.7,29.99,WNW,286,0.0,0.0,93,0.00,,,0.00,Wunderground v.1.15,2013-12-03 12:30:00,
2013-12-03 07:36:00,31.5,29.7,30.00,WNW,286,0.0,0.0,93,0.00,,,0.00,Wunderground v.1.15,2013-12-03 12:36:00,
2013-12-03 07:42:00,31.5,29.7,30.00,WNW,286,0.0,0.0,93,0.00,,,0.00,Wunderground v.1.15,2013-12-03 12:42:00,
2013-12-03 07:48:00,31.8,30.3,30.00,WNW,286,0.0,0.0,94,0.00,,,0.00,Wunderground v.1.15,2013-12-03 12:48:00,
2013-12-03 07:54:00,32.4,30.9,30.00,WNW,286,0.0,0.0,94,0.00,,,0.00,Wunderground v.1.15,2013-12-03 12:54:00,
2013-12-03 08:00:00,32.5,31.0,30.00,WNW,286,0.0,0.0,94,0.00,,,0.00,Wunderground v.1.15,2013-12-03 13:00:00,
2013-12-03 08:05:00,32.6,30.8,30.00,WNW,286,0.0,0.0,93,0.00,,,0.00,Wunderground v.1.15,2013-12-03 13:05:00,
2013-12-03 08:11:00,32.9,31.4,30.00,WNW,286,0.0,0.0,94,0.00,,,0.00,Wunderground v.1.15,2013-12-03 13:11:00,
2013-12-03 08:17:00,33.2,31.7,30.01,WNW,286,0.0,0.0,94,0.00,,,0.00,Wunderground v.1.15,2013-12-03 13:17:00,
2013-12-03 08:22:00,33.2,31.4,30.00,WNW,286,0.0,0.0,93,0.00,,,0.00,Wunderground v.1.15,2013-12-03 13:22:00,
2013-12-03 08:27:00,33.2,31.4,30.01,WNW,286,0.0,0.0,93,0.00,,,0.00,Wunderground v.1.15,2013-12-03 13:27:00,
2013-12-03 08:33:00,33.0,30.9,30.01,WNW,286,0.0,0.0,92,0.00,,,0.00,Wunderground v.1.15,2013-12-03 13:33:00,
2013-12-03 08:38:00,33.0,31.2,30.01,WNW,286,0.0,0.0,93,0.00,,,0.00,Wunderground v.1.15,2013-12-03 13:38:00,
2013-12-03 08:44:00,33.1,31.3,30.01,WNW,286,0.0,0.0,93,0.00,,,0.00,Wunderground v.1.15,2013-12-03 13:44:00,
2013-12-03 08:50:00,33.2,31.4,30.01,WNW,286,0.0,0.0,93,0.00,,,0.00,Wunderground v.1.15,2013-12-03 13:50:00,
2013-12-03 08:56:00,33.4,31.6,30.01,WNW,286,0.0,0.0,93,0.00,,,0.00,Wunderground v.1.15,2013-12-03 13:56:00,
2013-12-03 09:02:00,33.7,31.9,30.01,WNW,286,0.0,0.0,93,0.00,,,0.00,Wunderground v.1.15,2013-12-03 14:02:00,
2013-12-03 09:08:00,34.2,32.4,30.00,WNW,286,0.0,0.0,93,0.00,,,0.00,Wunderground v.1.15,2013-12-03 14:08:00,
2013-12-03 09:14:00,34.4,32.6,30.01,WNW,286,0.0,0.0,93,0.00,,,0.00,Wunderground v.1.15,2013-12-03 14:14:00,
2013-12-03 09:20:00,34.8,33.0,30.01,WNW,286,0.0,0.0,93,0.00,,,0.00,Wunderground v.1.15,2013-12-03 14:20:00,
2013-12-03 09:26:00,35.2,33.1,30.01,WNW,286,0.0,0.0,92,0.00,,,0.00,Wunderground v.1.15,2013-12-03 14:26:00,
2013-12-03 09:32:00,35.5,33.1,30.01,WNW,286,0.0,2.0,91,0.00,,,0.00,Wunderground v.1.15,2013-12-03 14:32:00,
2013-12-03 09:38:00,35.7,33.3,30.01,WNW,286,1.0,2.0,91,0.00,,,0.00,Wunderground v.1.15,2013-12-03 14:38:00,
2013-12-03 09:44:00,35.9,33.3,30.01,WNW,286,1.0,1.0,90,0.00,,,0.00,Wunderground v.1.15,2013-12-03 14:44:00,
2013-12-03 09:50:00,36.4,33.7,30.01,WNW,286,0.0,1.0,90,0.00,,,0.00,Wunderground v.1.15,2013-12-03 14:50:00,
2013-12-03 09:56:00,37.1,34.4,30.01,WNW,286,0.0,2.0,90,0.00,,,0.00,Wunderground v.1.15,2013-12-03 14:56:00,
2013-12-03 10:02:00,37.9,34.9,30.01,WNW,286,1.0,5.0,89,0.00,,,0.00,Wunderground v.1.15,2013-12-03 15:02:00,
2013-12-03 10:07:00,38.2,35.0,30.01,West,281,2.0,5.0,88,0.00,,,0.00,Wunderground v.1.15,2013-12-03 15:07:00,
2013-12-03 10:13:00,38.7,35.5,30.01,WNW,291,2.0,3.0,88,0.00,,,0.00,Wunderground v.1.15,2013-12-03 15:13:00,
2013-12-03 10:19:00,39.5,35.7,30.01,WNW,291,1.0,5.0,86,0.00,,,0.00,Wunderground v.1.15,2013-12-03 15:19:00,
2013-12-03 10:25:00,39.7,35.6,30.01,WNW,292,2.0,4.0,85,0.00,,,0.00,Wunderground v.1.15,2013-12-03 15:25:00,
2013-12-03 10:31:00,39.8,35.7,30.01,NW,313,2.0,5.0,85,0.00,,,0.00,Wunderground v.1.15,2013-12-03 15:31:00,
2013-12-03 10:37:00,40.0,35.9,30.01,NW,304,2.0,5.0,85,0.00,,,0.00,Wunderground v.1.15,2013-12-03 15:37:00,
2013-12-03 10:43:00,40.1,35.7,30.01,NNW,328,2.0,5.0,84,0.00,,,0.00,Wunderground v.1.15,2013-12-03 15:43:00,
2013-12-03 10:49:00,39.8,35.4,30.00,NNW,331,3.0,6.0,84,0.00,,,0.00,Wunderground v.1.15,2013-12-03 15:49:00,
2013-12-03 10:55:00,39.6,35.5,30.00,NNW,329,4.0,5.0,85,0.00,,,0.00,Wunderground v.1.15,2013-12-03 15:55:00,
2013-12-03 11:01:00,39.4,35.3,30.00,NNW,331,4.0,4.0,85,0.00,,,0.00,Wunderground v.1.15,2013-12-03 16:01:00,
2013-12-03 11:07:00,39.5,35.7,30.00,NNW,331,2.0,4.0,86,0.00,,,0.00,Wunderground v.1.15,2013-12-03 16:07:00,
2013-12-03 11:13:00,39.7,35.6,30.00,NW,318,1.0,6.0,85,0.00,,,0.00,Wunderground v.1.15,2013-12-03 16:13:00,
2013-12-03 11:19:00,39.7,35.6,30.00,NW,318,1.0,6.0,85,0.00,,,0.00,Wunderground v.1.15,2013-12-03 16:19:00,
2013-12-03 11:25:00,39.4,35.3,30.00,North,350,2.0,5.0,85,0.00,,,0.00,Wunderground v.1.15,2013-12-03 16:25:00,
2013-12-03 11:30:00,39.3,35.2,30.00,North,355,3.0,3.0,85,0.00,,,0.00,Wunderground v.1.15,2013-12-03 16:30:00,
2013-12-03 11:36:00,39.0,34.9,30.00,North,351,5.0,8.0,85,0.00,,,0.00,Wunderground v.1.15,2013-12-03 16:36:00,
2013-12-03 11:42:00,38.9,35.1,29.99,North,5,4.0,7.0,86,0.00,,,0.00,Wunderground v.1.15,2013-12-03 16:42:00,
2013-12-03 11:48:00,38.9,35.1,29.99,NNE,26,3.0,10.0,86,0.00,,,0.00,Wunderground v.1.15,2013-12-03 16:48:00,
2013-12-03 11:54:00,38.7,34.9,30.00,NNE,13,4.0,6.0,86,0.00,,,0.00,Wunderground v.1.15,2013-12-03 16:54:00,
2013-12-03 12:00:00,38.9,35.1,29.99,NNW,336,2.0,3.0,86,0.00,,,0.00,Wunderground v.1.15,2013-12-03 17:00:00,
2013-12-03 12:06:00,38.8,35.0,29.99,NNW,336,3.0,5.0,86,0.00,,,0.00,Wunderground v.1.15,2013-12-03 17:06:00,
2013-12-03 12:12:00,38.8,34.7,29.99,NNW,348,3.0,7.0,85,0.00,,,0.00,Wunderground v.1.15,2013-12-03 17:12:00,
2013-12-03 12:18:00,38.8,34.7,29.99,North,355,3.0,7.0,85,0.00,,,0.00,Wunderground v.1.15,2013-12-03 17:18:00,
2013-12-03 12:24:00,39.0,34.9,29.99,NW,304,1.0,4.0,85,0.00,,,0.00,Wunderground v.1.15,2013-12-03 17:24:00,
2013-12-03 12:30:00,39.1,35.0,29.99,WNW,296,2.0,2.0,85,0.00,,,0.00,Wunderground v.1.15,2013-12-03 17:30:00,
2013-12-03 12:36:00,39.1,35.0,29.99,WNW,295,2.0,4.0,85,0.00,,,0.00,Wunderground v.1.15,2013-12-03 17:36:00,
2013-12-03 12:42:00,39.1,35.0,29.99,NW,305,2.0,2.0,85,0.00,,,0.00,Wunderground v.1.15,2013-12-03 17:42:00,
2013-12-03 12:47:00,39.3,35.2,29.99,NW,305,1.0,5.0,85,0.00,,,0.00,Wunderground v.1.15,2013-12-03 17:47:00,
2013-12-03 12:53:00,39.4,35.0,29.99,NW,311,2.0,7.0,84,0.00,,,0.00,Wunderground v.1.15,2013-12-03 17:53:00,
2013-12-03 12:59:00,39.4,35.0,29.99,NW,311,2.0,7.0,84,0.00,,,0.00,Wunderground v.1.15,2013-12-03 17:59:00,
2013-12-03 13:05:00,39.4,35.0,29.99,NW,311,1.0,3.0,84,0.00,,,0.00,Wunderground v.1.15,2013-12-03 18:05:00,
2013-12-03 13:11:00,39.3,34.9,29.99,NW,313,2.0,5.0,84,0.00,,,0.00,Wunderground v.1.15,2013-12-03 18:11:00,
2013-12-03 13:17:00,39.2,34.8,29.99,NW,326,3.0,7.0,84,0.00,,,0.00,Wunderground v.1.15,2013-12-03 18:17:00,
2013-12-03 13:23:00,39.1,34.7,29.98,NNW,328,4.0,5.0,84,0.00,,,0.00,Wunderground v.1.15,2013-12-03 18:23:00,
2013-12-03 13:29:00,39.2,34.8,29.98,NNW,328,3.0,5.0,84,0.00,,,0.00,Wunderground v.1.15,2013-12-03 18:29:00,
2013-12-03 13:35:00,39.3,35.2,29.99,NNW,329,2.0,3.0,85,0.00,,,0.00,Wunderground v.1.15,2013-12-03 18:35:00,
2013-12-03 13:41:00,39.1,34.7,29.98,NNW,329,2.0,4.0,84,0.00,,,0.00,Wunderground v.1.15,2013-12-03 18:41:00,
2013-12-03 13:47:00,38.8,34.4,29.98,NNE,17,3.0,8.0,84,0.00,,,0.00,Wunderground v.1.15,2013-12-03 18:47:00,
2013-12-03 13:53:00,38.6,34.5,29.98,NNE,22,4.0,4.0,85,0.00,,,0.00,Wunderground v.1.15,2013-12-03 18:53:00,
2013-12-03 13:59:00,38.6,34.5,29.98,NNE,22,2.0,5.0,85,0.00,,,0.00,Wunderground v.1.15,2013-12-03 18:59:00,
2013-12-03 14:05:00,38.7,34.6,29.98,NNE,21,2.0,4.0,85,0.00,,,0.00,Wunderground v.1.15,2013-12-03 19:05:00,
2013-12-03 14:10:00,38.7,34.6,29.98,North,10,2.0,2.0,85,0.00,,,0.00,Wunderground v.1.15,2013-12-03 19:10:00,
2013-12-03 14:16:00,38.8,34.7,29.98,North,10,1.0,4.0,85,0.00,,,0.00,Wunderground v.1.15,2013-12-03 19:16:00,
2013-12-03 14:22:00,38.5,34.4,29.98,NNE,15,4.0,8.0,85,0.00,,,0.00,Wunderground v.1.15,2013-12-03 19:22:00,
2013-12-03 14:28:00,38.3,34.2,29.98,NE,40,6.0,9.0,85,0.00,,,0.00,Wunderground v.1.15,2013-12-03 19:28:00,
2013-12-03 14:33:00,38.0,33.9,29.99,North,9,7.0,7.0,85,0.00,,,0.00,Wunderground v.1.15,2013-12-03 19:33:00,
2013-12-03 14:39:00,38.0,34.2,29.99,NNW,329,5.0,7.0,86,0.00,,,0.00,Wunderground v.1.15,2013-12-03 19:39:00,
2013-12-03 14:45:00,37.9,33.8,29.99,NNW,338,4.0,7.0,85,0.00,,,0.00,Wunderground v.1.15,2013-12-03 19:45:00,
2013-12-03 14:51:00,37.8,33.7,29.99,North,11,5.0,10.0,85,0.00,,,0.00,Wunderground v.1.15,2013-12-03 19:51:00,
2013-12-03 14:57:00,37.6,33.5,30.00,NNE,12,6.0,10.0,85,0.00,,,0.00,Wunderground v.1.15,2013-12-03 19:57:00,
2013-12-03 15:03:00,37.5,33.4,30.00,NNE,22,6.0,11.0,85,0.00,,,0.00,Wunderground v.1.15,2013-12-03 20:03:00,
2013-12-03 15:09:00,37.3,33.2,30.00,North,355,7.0,11.0,85,0.00,,,0.00,Wunderground v.1.15,2013-12-03 20:09:00,
2013-12-03 15:15:00,37.2,33.1,30.00,NNE,17,6.0,8.0,85,0.00,,,0.00,Wunderground v.1.15,2013-12-03 20:15:00,
2013-12-03 15:21:00,37.1,33.0,30.01,North,5,6.0,6.0,85,0.00,,,0.00,Wunderground v.1.15,2013-12-03 20:21:00,
2013-12-03 15:27:00,37.0,32.9,30.01,North,355,6.0,7.0,85,0.00,,,0.00,Wunderground v.1.15,2013-12-03 20:27:00,
2013-12-03 15:33:00,37.0,32.6,30.01,NNW,333,6.0,10.0,84,0.00,,,0.00,Wunderground v.1.15,2013-12-03 20:33:00,
2013-12-03 15:39:00,36.9,32.5,30.01,NNW,338,6.0,10.0,84,0.00,,,0.00,Wunderground v.1.15,2013-12-03 20:39:00,
2013-12-03 15:45:00,36.8,32.4,30.02,NNE,13,4.0,8.0,84,0.00,,,0.00,Wunderground v.1.15,2013-12-03 20:45:00,
2013-12-03 15:50:00,36.8,32.4,30.02,NNW,330,5.0,5.0,84,0.00,,,0.00,Wunderground v.1.15,2013-12-03 20:50:00,
2013-12-03 15:56:00,36.7,32.3,30.02,NNW,338,3.0,5.0,84,0.00,,,0.00,Wunderground v.1.15,2013-12-03 20:56:00,
2013-12-03 16:02:00,36.6,32.2,30.03,NNW,346,3.0,4.0,84,0.00,,,0.00,Wunderground v.1.15,2013-12-03 21:02:00,
2013-12-03 16:08:00,36.6,32.2,30.03,NNW,344,3.0,4.0,84,0.00,,,0.00,Wunderground v.1.15,2013-12-03 21:08:00,
2013-12-03 16:14:00,36.7,32.3,30.03,NNW,343,3.0,6.0,84,0.00,,,0.00,Wunderground v.1.15,2013-12-03 21:14:00,
2013-12-03 16:20:00,36.6,32.2,30.03,NNW,336,3.0,6.0,84,0.00,,,0.00,Wunderground v.1.15,2013-12-03 21:20:00,
2013-12-03 16:26:00,36.6,32.2,30.03,NNW,332,2.0,6.0,84,0.00,,,0.00,Wunderground v.1.15,2013-12-03 21:26:00,
2013-12-03 16:32:00,36.5,33.6,30.03,NNW,332,3.0,4.0,89,0.00,,,0.00,Wunderground v.1.15,2013-12-03 21:32:00,
2013-12-03 16:38:00,36.4,32.0,30.03,WNW,303,3.0,6.0,84,0.00,,,0.00,Wunderground v.1.15,2013-12-03 21:38:00,
2013-12-03 16:44:00,36.3,31.9,30.03,NW,313,3.0,3.0,84,0.00,,,0.00,Wunderground v.1.15,2013-12-03 21:44:00,
2013-12-03 16:50:00,36.3,31.9,30.04,NW,319,2.0,6.0,84,0.00,,,0.00,Wunderground v.1.15,2013-12-03 21:50:00,
2013-12-03 16:56:00,36.3,32.2,30.04,NW,319,2.0,6.0,85,0.00,,,0.00,Wunderground v.1.15,2013-12-03 21:56:00,
2013-12-03 17:02:00,36.3,32.2,30.04,NW,319,2.0,3.0,85,0.00,,,0.00,Wunderground v.1.15,2013-12-03 22:02:00,
2013-12-03 17:08:00,36.3,31.9,30.04,NW,319,3.0,5.0,84,0.00,,,0.00,Wunderground v.1.15,2013-12-03 22:08:00,
2013-12-03 17:13:00,36.2,31.8,30.04,NW,319,2.0,4.0,84,0.00,,,0.00,Wunderground v.1.15,2013-12-03 22:13:00,
2013-12-03 17:19:00,36.1,31.4,30.04,NW,320,3.0,6.0,83,0.00,,,0.00,Wunderground v.1.15,2013-12-03 22:19:00,
2013-12-03 17:25:00,36.0,31.6,30.05,NW,320,3.0,5.0,84,0.00,,,0.00,Wunderground v.1.15,2013-12-03 22:25:00,
2013-12-03 17:31:00,36.1,31.7,30.05,NW,320,2.0,3.0,84,0.00,,,0.00,Wunderground v.1.15,2013-12-03 22:31:00,
2013-12-03 17:37:00,36.1,31.4,30.05,NW,320,2.0,3.0,83,0.00,,,0.00,Wunderground v.1.15,2013-12-03 22:37:00,
2013-12-03 17:43:00,36.0,31.3,30.05,NW,320,2.0,5.0,83,0.00,,,0.00,Wunderground v.1.15,2013-12-03 22:43:00,
2013-12-03 17:49:00,36.0,31.3,30.05,NW,321,1.0,5.0,83,0.00,,,0.00,Wunderground v.1.15,2013-12-03 22:49:00,
2013-12-03 17:55:00,35.9,30.9,30.05,NW,320,1.0,2.0,82,0.00,,,0.00,Wunderground v.1.15,2013-12-03 22:55:00,
2013-12-03 18:01:00,35.9,31.2,30.05,NW,320,1.0,3.0,83,0.00,,,0.00,Wunderground v.1.15,2013-12-03 23:01:00,
2013-12-03 18:06:00,35.9,30.9,30.05,NW,320,1.0,3.0,82,0.00,,,0.00,Wunderground v.1.15,2013-12-03 23:06:00,
2013-12-03 18:12:00,35.8,30.5,30.05,NW,321,1.0,2.0,81,0.00,,,0.00,Wunderground v.1.15,2013-12-03 23:12:00,
2013-12-03 18:18:00,35.7,30.4,30.05,NW,320,1.0,3.0,81,0.00,,,0.00,Wunderground v.1.15,2013-12-03 23:18:00,
2013-12-03 18:24:00,35.6,30.3,30.05,NW,320,0.0,2.0,81,0.00,,,0.00,Wunderground v.1.15,2013-12-03 23:24:00,
2013-12-03 18:30:00,35.6,30.0,30.05,NW,321,0.0,0.0,80,0.00,,,0.00,Wunderground v.1.15,2013-12-03 23:30:00,
2013-12-03 18:35:00,35.6,30.0,30.06,NW,321,0.0,0.0,80,0.00,,,0.00,Wunderground v.1.15,2013-12-03 23:35:00,
2013-12-03 18:41:00,35.5,29.9,30.06,NW,320,0.0,2.0,80,0.00,,,0.00,Wunderground v.1.15,2013-12-03 23:41:00,
2013-12-03 18:47:00,35.3,29.7,30.05,NW,321,0.0,2.0,80,0.00,,,0.00,Wunderground v.1.15,2013-12-03 23:47:00,
2013-12-03 18:53:00,35.2,29.6,30.06,NW,321,0.0,1.0,80,0.00,,,0.00,Wunderground v.1.15,2013-12-03 23:53:00,
2013-12-03 18:59:00,35.1,29.6,30.05,NW,320,0.0,1.0,80,0.00,,,0.00,Wunderground v.1.15,2013-12-03 23:59:00,
2013-12-03 19:05:00,35.0,29.5,30.05,NW,320,0.0,0.0,80,0.00,,,0.00,Wunderground v.1.15,2013-12-04 00:05:00,
2013-12-03 19:11:00,34.9,29.7,30.05,NW,321,0.0,1.0,81,0.00,,,0.00,Wunderground v.1.15,2013-12-04 00:11:00,
2013-12-03 19:17:00,34.7,29.5,30.05,NW,321,1.0,2.0,81,0.00,,,0.00,Wunderground v.1.15,2013-12-04 00:17:00,
2013-12-03 19:23:00,34.6,29.4,30.05,NW,320,1.0,5.0,81,0.00,,,0.00,Wunderground v.1.15,2013-12-04 00:23:00,
2013-12-03 19:29:00,34.3,29.1,30.05,NW,320,2.0,5.0,81,0.00,,,0.00,Wunderground v.1.15,2013-12-04 00:29:00,
2013-12-03 19:35:00,34.3,29.4,30.05,NW,320,2.0,4.0,82,0.00,,,0.00,Wunderground v.1.15,2013-12-04 00:35:00,
2013-12-03 19:41:00,34.1,29.2,30.06,NW,320,2.0,4.0,82,0.00,,,0.00,Wunderground v.1.15,2013-12-04 00:41:00,
2013-12-03 19:47:00,34.0,29.4,30.05,NW,320,2.0,6.0,83,0.00,,,0.00,Wunderground v.1.15,2013-12-04 00:47:00,
2013-12-03 19:53:00,33.8,29.5,30.05,NW,320,2.0,5.0,84,0.00,,,0.00,Wunderground v.1.15,2013-12-04 00:53:00,
2013-12-03 19:58:00,33.7,29.4,30.05,NW,320,3.0,5.0,84,0.00,,,0.00,Wunderground v.1.15,2013-12-04 00:58:00,
2013-12-03 20:04:00,33.6,29.3,30.05,NW,320,2.0,3.0,84,0.00,,,0.00,Wunderground v.1.15,2013-12-04 01:04:00,
2013-12-03 20:10:00,33.6,29.3,30.05,NW,320,2.0,2.0,84,0.00,,,0.00,Wunderground v.1.15,2013-12-04 01:10:00,
2013-12-03 20:16:00,33.6,29.3,30.05,NW,320,1.0,2.0,84,0.00,,,0.00,Wunderground v.1.15,2013-12-04 01:16:00,
2013-12-03 20:22:00,33.6,29.3,30.05,NW,320,1.0,4.0,84,0.00,,,0.00,Wunderground v.1.15,2013-12-04 01:22:00,
2013-12-03 20:28:00,33.5,29.2,30.05,NW,320,2.0,4.0,84,0.00,,,0.00,Wunderground v.1.15,2013-12-04 01:28:00,
2013-12-03 20:34:00,33.4,29.1,30.05,NW,320,1.0,3.0,84,0.00,,,0.00,Wunderground v.1.15,2013-12-04 01:34:00,
2013-12-03 20:40:00,33.4,29.1,30.05,NW,320,0.0,0.0,84,0.00,,,0.00,Wunderground v.1.15,2013-12-04 01:40:00,
2013-12-03 20:46:00,33.4,29.1,30.05,NW,320,0.0,2.0,84,0.00,,,0.00,Wunderground v.1.15,2013-12-04 01:46:00,
2013-12-03 20:52:00,33.2,28.9,30.06,NW,320,1.0,2.0,84,0.00,,,0.00,Wunderground v.1.15,2013-12-04 01:52:00,
2013-12-03 20:58:00,32.9,28.9,30.06,NW,320,2.0,4.0,85,0.00,,,0.00,Wunderground v.1.15,2013-12-04 01:58:00,
2013-12-03 21:04:00,32.8,28.8,30.06,NW,320,3.0,5.0,85,0.00,,,0.00,Wunderground v.1.15,2013-12-04 02:04:00,
2013-12-03 21:10:00,32.8,28.8,30.06,NW,320,3.0,3.0,85,0.00,,,0.00,Wunderground v.1.15,2013-12-04 02:10:00,
2013-12-03 21:15:00,32.8,28.8,30.06,NW,320,1.0,3.0,85,0.00,,,0.00,Wunderground v.1.15,2013-12-04 02:15:00,
2013-12-03 21:21:00,32.8,28.8,30.07,NW,320,0.0,1.0,85,0.00,,,0.00,Wunderground v.1.15,2013-12-04 02:21:00,
2013-12-03 21:27:00,32.7,28.4,30.07,NW,320,0.0,1.0,84,0.00,,,0.00,Wunderground v.1.15,2013-12-04 02:27:00,
2013-12-03 21:33:00,32.5,28.5,30.07,NW,320,0.0,0.0,85,0.00,,,0.00,Wunderground v.1.15,2013-12-04 02:33:00,
2013-12-03 21:39:00,32.4,28.4,30.07,NW,320,0.0,1.0,85,0.00,,,0.00,Wunderground v.1.15,2013-12-04 02:39:00,
2013-12-03 21:45:00,32.3,28.3,30.07,NW,320,1.0,4.0,85,0.00,,,0.00,Wunderground v.1.15,2013-12-04 02:45:00,
2013-12-03 21:51:00,32.2,28.5,30.07,NW,320,2.0,4.0,86,0.00,,,0.00,Wunderground v.1.15,2013-12-04 02:51:00,
2013-12-03 21:57:00,32.1,28.4,30.07,NW,320,3.0,4.0,86,0.00,,,0.00,Wunderground v.1.15,2013-12-04 02:57:00,
2013-12-03 22:03:00,31.9,28.5,30.07,NW,320,2.0,3.0,87,0.00,,,0.00,Wunderground v.1.15,2013-12-04 03:03:00,
2013-12-03 22:09:00,31.9,28.5,30.07,NW,320,2.0,3.0,87,0.00,,,0.00,Wunderground v.1.15,2013-12-04 03:09:00,
2013-12-03 22:15:00,31.8,28.4,30.08,NW,320,1.0,4.0,87,0.00,,,0.00,Wunderground v.1.15,2013-12-04 03:15:00,
2013-12-03 22:21:00,31.6,28.2,30.08,NW,320,1.0,2.0,87,0.00,,,0.00,Wunderground v.1.15,2013-12-04 03:21:00,
2013-12-03 22:27:00,31.6,28.5,30.08,NW,320,1.0,4.0,88,0.00,,,0.00,Wunderground v.1.15,2013-12-04 03:27:00,
2013-12-03 22:33:00,31.8,28.4,30.08,NW,320,2.0,2.0,87,0.00,,,0.00,Wunderground v.1.15,2013-12-04 03:33:00,
2013-12-03 22:38:00,31.9,28.5,30.07,NW,320,0.0,2.0,87,0.00,,,0.00,Wunderground v.1.15,2013-12-04 03:38:00,
2013-12-03 22:44:00,31.9,28.5,30.07,NW,320,1.0,1.0,87,0.00,,,0.00,Wunderground v.1.15,2013-12-04 03:44:00,
2013-12-03 22:50:00,31.7,28.3,30.07,NW,320,0.0,0.0,87,0.00,,,0.00,Wunderground v.1.15,2013-12-04 03:50:00,
2013-12-03 22:56:00,31.5,27.8,30.07,NW,320,0.0,0.0,86,0.00,,,0.00,Wunderground v.1.15,2013-12-04 03:56:00,
2013-12-03 23:02:00,31.0,27.3,30.07,NW,320,0.0,0.0,86,0.00,,,0.00,Wunderground v.1.15,2013-12-04 04:02:00,
2013-12-03 23:08:00,30.3,26.6,30.08,NW,320,0.0,0.0,86,0.00,,,0.00,Wunderground v.1.15,2013-12-04 04:08:00,
2013-12-03 23:14:00,29.6,26.2,30.07,NW,320,0.0,0.0,87,0.00,,,0.00,Wunderground v.1.15,2013-12-04 04:14:00,
2013-12-03 23:20:00,28.9,25.8,30.08,NW,320,0.0,0.0,88,0.00,,,0.00,Wunderground v.1.15,2013-12-04 04:20:00,
2013-12-03 23:26:00,28.5,25.7,30.08,NW,320,0.0,0.0,89,0.00,,,0.00,Wunderground v.1.15,2013-12-04 04:26:00,
2013-12-03 23:32:00,28.4,25.8,30.08,NW,320,0.0,0.0,90,0.00,,,0.00,Wunderground v.1.15,2013-12-04 04:32:00,
2013-12-03 23:38:00,28.3,25.7,30.08,NW,320,0.0,0.0,90,0.00,,,0.00,Wunderground v.1.15,2013-12-04 04:38:00,
2013-12-03 23:44:00,28.0,25.4,30.08,NW,320,0.0,0.0,90,0.00,,,0.00,Wunderground v.1.15,2013-12-04 04:44:00,
2013-12-03 23:50:00,27.8,25.2,30.08,NW,320,0.0,0.0,90,0.00,,,0.00,Wunderground v.1.15,2013-12-04 04:50:00,
2013-12-03 23:55:00,27.6,25.3,30.07,NW,320,0.0,0.0,91,0.00,,,0.00,Wunderground v.1.15,2013-12-04 04:55:00,